Regional Weather Roundup
Issued by NWS Sterling, VA

Current Version | Previous Version | Text Only | Print | Product List | Glossary On
Versions: 1 2 3 4 5 6 7 8 9 10 11 12 13 14 15 16 17 18 19 20 21 22 23 24 25 26 27 28 29 30 31 32 33 34 35 36 37 38 39 40 41 42 43 44 45 46 47 48 49 50
000
ASUS41 KLWX 262211
RWRLWX

REGIONAL WEATHER ROUNDUP
NATIONAL WEATHER SERVICE BALTIMORE MD/WASHINGTON DC
600 PM EDT WED APR 26 2017

Note: "FAIR" indicates few or no clouds below 12,000 feet
with no significant weather and/or obstructions to visibility.
 TC=TEMPERATURE CELSIUS

 * =Non NWS site. Station does not report precipitation (e.g. rain,
    snow, etc.), thunder, or fog.

DCZ001-MDZ009-015-VAZ040>042-051-053>054-262300-
WASHINGTON METRO

CITY           SKY/WX    TMP DP  RH WIND       PRES   REMARKS
WASHINGTON NAT PTSUNNY   71  60  68 E7        29.77S
DULLES         PTSUNNY   73  58  59 NE3       29.76F
ANDREWS AFB    CLOUDY    67  57  71 NE5       29.77S
FT BELVOIR     MOSUNNY   70  58  66 SE10      29.77R
QUANTICO       PTSUNNY   71  63  75 E6        29.77S
COLLEGE PARK*  CLOUDY    67  56  68 CALM      29.78R
LEESBURG*      SUNNY     72  61  68 NE3       29.77S
MANASSAS*        N/A     74  60  61 SE5       29.76S

$$

MDZ006>007-011-014-262300-
BALTIMORE METRO

CITY           SKY/WX    TMP DP  RH WIND       PRES   REMARKS
BWI AIRPORT    CLOUDY    66  58  75 CALM      29.78R
MD SCIENCE CTR   N/A     67  57  70 MISG      29.78S
MARTIN STATE   CLOUDY    64  61  88 SE3       29.80S
ANNAPOLIS      CLOUDY    65  58  78 S3        29.79R
FORT MEADE*    CLOUDY    64  57  77 CALM      29.81R

$$

MDZ012-015-019>023-262300-
MARYLAND EASTERN SHORE

CITY           SKY/WX    TMP DP  RH WIND       PRES   REMARKS
OCEAN CITY     CLOUDY    56  55  97 SW6       29.81R FOG
SALISBURY      CLOUDY    63  59  87 W6        29.80R
BAY BRIDGE AP* CLOUDY    66  57  72 CALM      29.79R
CAMBRIDGE*     CLOUDY    64  57  77 CALM      29.80R
EASTON*        CLOUDY    64  57  77 CALM      29.83S

$$

MDZ017>025-262300-
SOUTHERN MARYLAND

CITY           SKY/WX    TMP DP  RH WIND       PRES   REMARKS
PATUXENT RIVER MOSUNNY   64  60  87 E6        29.79R
ST INIGOES     SUNNY     67  59  75 E7        29.78S
LEONARDTOWN*   MOSUNNY   66  59  77 E3        29.80S

$$

MDZ003>005-262300-
NORTH CENTRAL MARYLAND

CITY           SKY/WX    TMP DP  RH WIND       PRES   REMARKS
FREDERICK*     PTSUNNY   73  63  68 CALM      29.79S
HAGERSTOWN APT MOSUNNY   71  58  63 SE6       29.76S
WESTMINSTER*   CLOUDY    70  59  68 CALM      29.78S

$$

MDZ501>502-262300-
WESTERN MARYLAND

CITY           SKY/WX    TMP DP  RH WIND       PRES   REMARKS
OAKLAND*       SUNNY     72  50  46 SE6       29.79S
CUMBERLAND*    SUNNY     77  55  47 SE7       29.77S

$$

VAZ025>031-262300-
SHENANDOAH VALLEY

CITY           SKY/WX    TMP DP  RH WIND       PRES   REMARKS
WINCHESTER*    SUNNY     72  59  64 E8        29.76R
FRONT ROYAL*   SUNNY     73  61  64 CALM      29.75R
LURAY*         SUNNY     77  59  53 CALM      29.75R
NEW MARKET*    SUNNY     78  56  46 CALM      29.73R
STAUNTON*      SUNNY     78  57  48 SE3       29.77R
WAYNESBORO*    SUNNY     77  61  57 SE9       29.77R

$$

WVZ021-048>050-054>055-262300-
EASTERN WEST VIRGINIA PANHANDLE

CITY           SKY/WX    TMP DP  RH WIND       PRES   REMARKS
MARTINSBURG    SUNNY     72  57  59 CALM      29.75R
PETERSBURG*    SUNNY     81  60  49 E7        29.72R

$$

VAZ036>039-050-262300-
CENTRAL FOOTHILLS

CITY           SKY/WX    TMP DP  RH WIND       PRES   REMARKS
CHARLOTTESVILL SUNNY     80  59  48 SE8       29.75R
CULPEPER*      SUNNY     77  61  57 CALM      29.76R
ORANGE*        SUNNY     75  59  57 CALM      29.76R
GORDONSVILLE*  SUNNY     77  61  57 CALM      29.75R
WARRENTON*     SUNNY     77  55  46 SE3       29.75R

$$

VAZ055>057-262300-
NORTH AND CENTRAL PIEDMONT

CITY           SKY/WX    TMP DP  RH WIND       PRES   REMARKS
FREDERICKSBRG* SUNNY     75  61  60 E7        29.75S
STAFFORD*      SUNNY     73  62  68 E7        29.79S

$$

NCZ024-NYZ072-PAZ021-071-VAZ022-071-262300-
OTHER REGIONAL OBSERVATIONS

CITY           SKY/WX    TMP DP  RH WIND       PRES   REMARKS
NEW YORK CITY  CLOUDY    59  57  93 CALM      29.81R FOG
PHILADELPHIA   CLOUDY    64  56  75 NE5       29.79R
PITTSBURGH     MOSUNNY   78  57  48 S10       29.69F
ROANOKE        MOSUNNY   80  60  50 E12       29.76S
RICHMOND       MOSUNNY   77  59  53 CALM      29.77S
RALEIGH        MOSUNNY   79  62  56 W7        29.80R

$$

ANZ530>537-262300-
MARINE OBSERVATIONS

STATION/POSITION TIME  TEMP    WIND        PRES
                       AIR SEA DIR/SP/G
                 (UTC) (F)     (DEG/KT/KT) (MB)
THOMAS PT LIGHT  2200   60 56  170/  5/  5   N/A
BALT KEY BRIDGE  2142   61     110/  8/  9 1008.3F
COVE POINT       2142   63        CALM     1009.3F
LEWISETTA        2142   61 61  120/  8/  9 1008.5R
SOLOMONS ISLAND  2148           90/  6/  6   N/A
PINEY POINT      2148          140/  8/  8   N/A

$$




USA.gov is the U.S. government's official web portal to all federal, state and local government web resources and services.